Location: ??????
(41.3164°N, 22.6615°E)
Time: 02:46:54
(UTC+00:00)

CANX-2 - Pass Details

Date: 10 August 2022
Orbit: 591 x 608 km, 97.7° (Epoch: 03 October)

Event Time Altitude Azimuth Distance (km) Brightness Sun altitude
Rises 01:15:04 0° 29° (NNE) 2,847 ? -22.1°
Reaches altitude 10° 01:17:49 10° 48° (NE) 1,942 ? -21.7°
Maximum altitude 01:20:47 19° 93° (E) 1,462 ? -21.4°
Drops below altitude 10° 01:23:45 10° 138° (SE) 1,939 ? -21.0°
Enters shadow 01:24:48 - 147° (SSE) 2,255 ? -20.8°
